[[{"header":{"parameterUnit":"m.s-1","parameterCategory":1,"la1":30.2991,"la2":30.254,"lo1":-89.0895,"lo2":-89.0444,"dy":0.0017,"dx":0.0017,"nx":28,"ny":28,"refTime":"2024-02-13T03:00:00:Z","depth":0,"parameterNumber":2,"parameterNumberName":"U-component_of_WINDS"},"data":[0,0,0,0,0,0,0,0,0,0,0,0,0,0,0,0,0,0,0,0,0,0,0,0,0,0,0,0,0,0,0,0,0,0,0,0,0,0,0,0,0,0,0,0,0,0,0,0,0,0,0,0,0,0,0,0,0,0,-1.8269,-1.827,0,-1.8295,-1.8295,-1.8296,-1.8234,-1.8232,-1.823,-1.8228,-1.8257,-1.8259,-1.8262,0,0,0,0,0,0,0,0,0,0,0,0,0,-1.8171,-1.8173,-1.8269,-1.827,-1.827,-1.8295,-1.8295,-1.8296,-1.8234,-1.8232,-1.8229,-1.8227,-1.8256,-1.8259,-1.8262,0,0,0,0,0,0,0,0,0,0,0,0,0,-1.8207,-1.8174,-1.8269,-1.8242,-1.824,-1.8295,-1.8295,-1.8296,-1.8234,-1.8231,-1.8229,-1.8226,-1.8255,-1.8259,-1.8263,-1.8346,0,0,-1.8274,-1.8276,0,0,0,0,0,0,0,0,-1.8205,-1.8211,-1.8246,-1.8244,-1.8242,-1.8258,-1.8271,-1.8313,-1.8235,-1.8237,-1.8228,-1.8224,-1.826,-1.8263,-1.8274,-1.8347,-1.8348,-1.8275,-1.8277,-1.8279,-1.828,0,0,0,0,0,0,0,-1.8203,-1.8209,-1.828,-1.8246,-1.8244,-1.823,-1.8232,-1.8279,-1.8265,-1.8236,-1.8232,-1.8236,-1.8258,-1.8271,-1.8275,-1.8349,-1.8275,-1.8278,-1.8281,-1.8282,-1.8493,-1.8496,0,0,0,0,0,0,-1.8203,-1.8208,-1.8279,-1.828,-1.8216,-1.8234,-1.8236,-1.8256,-1.8264,-1.8262,-1.8238,-1.8233,-1.8266,-1.827,-1.8275,-1.8374,-1.8279,-1.8282,-1.8285,-1.849,-1.8494,-1.8497,0,0,0,0,0,0,-1.8201,-1.821,-1.8278,-1.8243,-1.825,-1.8239,-1.8262,-1.8258,-1.827,-1.8265,-1.8263,-1.8253,-1.8263,-1.827,-1.8329,-1.8374,-1.8284,-1.8288,-1.8486,-1.8491,-1.8495,-1.8571,0,0,0,0,0,0,-1.8199,-1.821,-1.824,-1.8244,-1.8252,-1.833,-1.8264,-1.8261,-1.8277,-1.827,-1.8279,-1.8277,-1.8262,-1.8323,-1.8333,-1.8377,-1.8291,-1.8482,-1.8488,-1.8494,-1.8564,-1.8578,-1.8589,0,0,0,0,0,-1.8195,-1.8261,-1.8242,-1.8251,-1.829,-1.8332,-1.8337,-1.8317,-1.8281,-1.8312,-1.8309,-1.8277,-1.8368,-1.833,-1.834,-1.8387,-1.8479,-1.8486,-1.8493,-1.8558,-1.8575,-1.8589,0,0,0,0,0,0,-1.8263,-1.826,-1.824,-1.8308,-1.8321,-1.8322,-1.836,-1.8335,-1.8359,-1.8351,-1.8326,-1.8329,-1.8393,-1.8396,-1.8354,-1.8469,-1.8417,-1.8427,-1.8463,-1.8479,-1.8491,-1.8488,-1.8294,0,0,0,0,0,-1.8285,-1.8319,-1.8316,-1.8376,-1.8384,-1.8371,-1.8389,-1.8372,-1.8385,-1.839,-1.8391,-1.8406,-1.8437,-1.8459,-1.8488,-1.8565,-1.8567,-1.8603,-1.8615,-1.8625,-1.8633,-1.8676,-1.8692,-1.8521,-1.8521,-1.8521,0,0,-1.8333,-1.8336,-1.8358,-1.839,-1.8398,-1.8434,-1.8376,-1.8417,-1.8444,-1.8397,-1.8451,-1.8454,-1.8468,-1.8537,-1.8568,-1.8542,-1.8681,-1.8635,-1.8643,-1.8645,-1.8685,-1.8701,-1.8715,-1.8526,-1.8525,-1.8524,0,0,-1.8437,-1.8443,-1.8493,-1.8503,-1.8516,-1.8508,-1.852,-1.8526,-1.8525,-1.858,-1.8546,-1.8579,-1.8634,-1.8646,-1.8659,-1.8771,-1.8743,-1.8782,-1.8846,-1.8888,-1.8901,-1.8913,-1.8953,-1.8967,-1.879,-1.8791,-1.8791,0,-1.8494,-1.8546,-1.8523,-1.8567,-1.8582,-1.8541,-1.8594,-1.8605,-1.8627,-1.8639,-1.861,-1.8679,-1.8686,-1.8758,-1.8785,-1.8798,-1.8812,-1.8779,-1.8901,-1.8912,-1.8923,-1.8961,-1.8976,-1.8795,-1.8795,-1.8794,-1.8794,0,-1.8615,-1.8653,-1.8693,-1.8714,-1.8735,-1.8783,-1.8769,-1.8793,-1.8775,-1.8771,-1.8829,-1.8836,-1.8866,-1.8882,-1.8866,-1.8952,-1.8936,-1.8905,-1.8852,-1.8944,-1.8979,-1.8993,-1.8802,-1.88,-1.8799,-1.8797,0,0,-1.876,-1.877,-1.8785,-1.8795,-1.8808,-1.8836,-1.8884,-1.8913,-1.8934,-1.8952,-1.8991,-1.904,-1.9011,-1.9026,-1.9012,-1.9048,-1.9137,-1.9012,-1.9012,-1.9035,-1.9233,-1.9255,-1.9272,-1.9119,-1.9122,-1.9124,-1.9231,0,-1.8862,-1.8941,-1.8924,-1.9002,-1.9037,-1.9,-1.9042,-1.9055,-1.9053,-1.9083,-1.9081,-1.9116,-1.9075,-1.9085,-1.9119,-1.9119,-1.9176,-1.9111,-1.9156,-1.9158,-1.9152,-1.9291,-1.9314,-1.9415,-1.9245,-1.9247,-1.9249,0,-1.8991,-1.9013,-1.9095,-1.9103,-1.9117,-1.9154,-1.918,-1.921,-1.9225,-1.9221,-1.9239,-1.9218,-1.9267,-1.9216,-1.9283,-1.9239,-1.9257,-1.926,-1.9263,-1.9265,-1.9208,-1.9296,-1.9446,-1.9461,-1.927,-1.9269,-1.9267,0,-1.9087,-1.9138,-1.9194,-1.9204,-1.9215,-1.9242,-1.9248,-1.926,-1.9279,-1.9303,-1.9315,-1.9345,-1.9361,-1.9385,-1.9373,-1.9337,-1.9443,-1.9391,-1.9441,-1.9442,-1.9463,-1.9462,-1.9618,-1.9478,-1.9477,-1.9477,-1.9477,0,-1.9202,-1.9254,-1.9237,-1.9271,-1.9328,-1.9309,-1.9367,-1.9369,-1.9381,-1.9416,-1.9387,-1.9421,-1.9404,-1.9437,-1.9429,-1.9486,-1.9494,-1.9492,-1.9489,-1.9494,-1.9494,-1.9504,-1.9496,-1.9481,-1.948,-1.9479,-1.9479,0,-1.9318,-1.9309,-1.9367,-1.9374,-1.9377,-1.9419,-1.9425,-1.9458,-1.9454,-1.9499,-1.9509,-1.9504,-1.9542,-1.9533,-1.9574,-1.9569,-1.964,-1.9629,-1.9635,-1.9631,-1.9682,-1.9677,-1.9849,-1.9871,-1.9718,-1.9719,-1.9721,0,-1.9391,-1.943,-1.9441,-1.9462,-1.947,-1.9505,-1.9524,-1.9508,-1.953,-1.9551,-1.9582,-1.9617,-1.9644,-1.9706,-1.9707,-1.974,-1.9728,-1.9787,-1.9733,-1.9737,-1.9728,-1.9726,-1.9729,-1.9796,-1.9798,-1.98,-1.9801,0,-1.9522,-1.9516,-1.9545,-1.9573,-1.9597,-1.9618,-1.9637,-1.9656,-1.9642,-1.9668,-1.9706,-1.9727,-1.977,-1.9806,-1.9836,-1.9844,-1.9821,-1.9818,-1.9831,-1.9836,-1.9837,-1.9836,-1.9662,-1.9814,-1.9812,-1.9811,-1.9811,-1.981,-1.9618,-1.9651,-1.9664,-1.9698,-1.971,-1.9729,-1.976,-1.9761,-1.9792,-1.9825,-1.9814,-1.9858,-1.9875,-1.9912,-1.9924,-1.9959,-1.9937,-1.9957,-1.9961,-1.9966,-1.9972,-1.9833,-1.9965,-1.9965,-1.9964,-1.9964,-1.9964,0,-1.9747,-1.9754,-1.9785,-1.9812,-1.9839,-1.9815,-1.9835,-1.9859,-1.9898,-1.9915,-1.9942,-1.9987,-2.0022,-2.0027,-2.006,-2.0088,-2.0078,-2.0097,-2.0094,-2.0096,-1.999,-1.9974,-2.0104,-2.0104,-2.0104,-2.0104,-2.0104,-2.0104,-1.9816,-1.9871,-1.9867,-1.9929,-1.9936,-1.9977,-1.9991,-2.0009,-2.0022,-2.0073,-2.0102,-2.0105,-2.0117,-2.0152,-2.0184,-2.0185,-2.0198,-2.0221,-2.0218,-2.0118,-2.0104,-2.009,-2.0076,-2.0224,-2.0224,-2.0321,-2.0322,-2.0322]},{"header":{"parameterUnit":"m.s-1","parameterCategory":1,"la1":30.2991,"la2":30.254,"lo1":-89.0895,"lo2":-89.0444,"dy":0.0017,"dx":0.0017,"nx":28,"ny":28,"refTime":"2024-02-13T03:00:00:Z","depth":0,"parameterNumber":3,"parameterNumberName":"V-component_of_WINDS"},"data":[0,0,0,0,0,0,0,0,0,0,0,0,0,0,0,0,0,0,0,0,0,0,0,0,0,0,0,0,0,0,0,0,0,0,0,0,0,0,0,0,0,0,0,0,0,0,0,0,0,0,0,0,0,0,0,0,0,0,1.5258,1.5259,0,1.5277,1.5277,1.5277,1.5313,1.5314,1.5315,1.5315,1.533,1.533,1.533,0,0,0,0,0,0,0,0,0,0,0,0,0,1.5252,1.5252,1.5258,1.5259,1.5259,1.5277,1.5277,1.5277,1.5313,1.5314,1.5315,1.5316,1.533,1.533,1.533,0,0,0,0,0,0,0,0,0,0,0,0,0,1.5261,1.5252,1.5258,1.5279,1.5281,1.5277,1.5277,1.5277,1.5313,1.5314,1.5315,1.5316,1.533,1.533,1.533,1.5305,0,0,1.5328,1.5328,0,0,0,0,0,0,0,0,1.526,1.5261,1.5276,1.5278,1.528,1.5294,1.528,1.5287,1.5313,1.5301,1.5315,1.5317,1.5317,1.5318,1.5319,1.5306,1.5307,1.5328,1.5328,1.5328,1.5328,0,0,0,0,0,0,0,1.526,1.526,1.5266,1.5276,1.5278,1.5287,1.5289,1.5282,1.5302,1.5302,1.5305,1.5306,1.5318,1.5319,1.5319,1.5307,1.5328,1.5328,1.5328,1.5328,1.5276,1.5275,0,0,0,0,0,0,1.5256,1.526,1.5265,1.5266,1.5273,1.5286,1.5289,1.5288,1.5303,1.5306,1.5305,1.5308,1.5319,1.532,1.532,1.5293,1.5328,1.5327,1.5327,1.5277,1.5276,1.5275,0,0,0,0,0,0,1.5256,1.5257,1.5264,1.5264,1.5265,1.5285,1.5284,1.5288,1.5289,1.5305,1.5309,1.5302,1.532,1.5321,1.5309,1.5294,1.5327,1.5327,1.5278,1.5277,1.5275,1.5238,0,0,0,0,0,0,1.5256,1.5256,1.5248,1.5263,1.5265,1.5254,1.5283,1.5288,1.5288,1.5292,1.5304,1.5306,1.5321,1.531,1.5309,1.5294,1.5327,1.528,1.5278,1.5276,1.5241,1.5236,1.5231,0,0,0,0,0,1.5256,1.5236,1.5247,1.5248,1.5255,1.5253,1.5254,1.5272,1.5287,1.5278,1.5289,1.5306,1.5296,1.5308,1.5307,1.5292,1.5281,1.5278,1.5276,1.5243,1.5237,1.5231,0,0,0,0,0,0,1.5216,1.5238,1.5251,1.5236,1.5243,1.5259,1.5249,1.5264,1.5266,1.5269,1.529,1.5292,1.5278,1.5284,1.5297,1.527,1.5291,1.5288,1.5267,1.526,1.5256,1.5254,1.5326,0,0,0,0,0,1.5206,1.5204,1.5222,1.5207,1.521,1.5229,1.5228,1.5242,1.5249,1.5252,1.5262,1.5267,1.5265,1.5263,1.5262,1.5242,1.5245,1.5232,1.5227,1.5222,1.522,1.521,1.5204,1.5266,1.5266,1.5266,0,0,1.5185,1.5196,1.5193,1.52,1.5206,1.5202,1.5231,1.5225,1.5222,1.525,1.5241,1.5248,1.5255,1.524,1.5233,1.5244,1.5203,1.5219,1.5216,1.5215,1.5207,1.5201,1.5195,1.5265,1.5265,1.5265,0,0,1.5144,1.5152,1.5141,1.5148,1.5158,1.5171,1.5168,1.5183,1.5189,1.518,1.5201,1.5198,1.5194,1.5199,1.52,1.5162,1.5178,1.5161,1.5135,1.5125,1.512,1.5116,1.5102,1.5097,1.5158,1.5158,1.5158,0,1.5115,1.5111,1.5133,1.5126,1.5128,1.5156,1.5144,1.5149,1.5158,1.5158,1.5171,1.5167,1.5174,1.516,1.5151,1.5152,1.5149,1.516,1.512,1.5115,1.5112,1.5099,1.5094,1.5156,1.5157,1.5157,1.5157,0,1.5076,1.5073,1.5062,1.5072,1.5073,1.5064,1.5083,1.5081,1.5095,1.5106,1.5097,1.5106,1.5108,1.5106,1.5118,1.5094,1.51,1.5116,1.5137,1.5103,1.5092,1.5087,1.5153,1.5154,1.5155,1.5155,0,0,1.501,1.5033,1.5028,1.5033,1.5047,1.5045,1.5037,1.504,1.5038,1.5044,1.5037,1.5034,1.5049,1.5051,1.5064,1.5056,1.5025,1.5073,1.5073,1.5063,1.4999,1.4987,1.4981,1.5036,1.5035,1.5035,1.4998,0,1.4972,1.496,1.498,1.4964,1.4961,1.4987,1.498,1.4988,1.4998,1.4997,1.5008,1.5006,1.5025,1.5027,1.502,1.5031,1.5013,1.5034,1.503,1.5029,1.5027,1.4975,1.4962,1.4927,1.4994,1.4993,1.4993,0,1.4925,1.493,1.4914,1.493,1.493,1.4923,1.4928,1.4927,1.4935,1.4944,1.4947,1.4963,1.4956,1.4977,1.4967,1.4981,1.4981,1.4986,1.4985,1.4985,1.5008,1.4973,1.4916,1.4911,1.4986,1.4986,1.4987,0,1.4879,1.4881,1.4872,1.4876,1.4894,1.4889,1.4896,1.4906,1.4907,1.4911,1.4912,1.4914,1.4915,1.4916,1.4933,1.4947,1.4921,1.4944,1.4927,1.4926,1.492,1.492,1.4862,1.492,1.492,1.492,1.492,0,1.4834,1.4823,1.4852,1.4846,1.4834,1.4857,1.4845,1.4854,1.4863,1.4859,1.4882,1.4877,1.49,1.4898,1.4911,1.4901,1.4901,1.4907,1.491,1.4905,1.4904,1.4904,1.4907,1.4919,1.4919,1.4919,1.4919,0,1.478,1.4798,1.479,1.4809,1.4813,1.4804,1.4819,1.4814,1.4827,1.4822,1.4822,1.4841,1.484,1.4857,1.4858,1.4867,1.4851,1.4859,1.4848,1.4851,1.4833,1.4834,1.4773,1.4766,1.4828,1.4828,1.4827,0,1.475,1.4742,1.476,1.476,1.4767,1.4765,1.4767,1.4789,1.4789,1.48,1.4793,1.4794,1.4796,1.4793,1.4807,1.4808,1.4816,1.4794,1.4816,1.4811,1.4815,1.4816,1.4815,1.4789,1.4789,1.4788,1.4788,0,1.4694,1.4704,1.4706,1.4712,1.4713,1.4718,1.4724,1.4723,1.4747,1.4746,1.4746,1.4747,1.475,1.4751,1.4755,1.4761,1.4778,1.4781,1.4777,1.4771,1.4765,1.4768,1.4835,1.4782,1.4782,1.4783,1.4783,1.4783,1.4651,1.4646,1.4658,1.466,1.4667,1.4673,1.467,1.4682,1.4683,1.4688,1.4701,1.4698,1.4708,1.4716,1.4721,1.4719,1.4729,1.4723,1.4722,1.472,1.4717,1.4766,1.4719,1.472,1.472,1.472,1.472,0,1.4597,1.4607,1.4608,1.4617,1.4618,1.4636,1.4644,1.4643,1.4641,1.4649,1.4651,1.4651,1.4652,1.4666,1.4669,1.4664,1.4672,1.4664,1.4664,1.4666,1.4707,1.4711,1.4658,1.4658,1.4658,1.4658,1.4658,1.4658,1.4569,1.4562,1.4573,1.4569,1.4579,1.4578,1.4581,1.4586,1.4592,1.4592,1.4593,1.4603,1.4613,1.4617,1.4618,1.4622,1.4622,1.4611,1.4618,1.4657,1.4663,1.4668,1.4671,1.4611,1.4611,1.4576,1.4576,1.4576]}]]